This is the latest recevied weather packets stored in our database for station/object WA4TPR. If no packets are shown the sender has not sent any weather packets the latest 10 day(s).
| Time | Temp. | Humidity | Pressure | Rain* | Wind** | Luminosity | Snow |
|---|---|---|---|---|---|---|---|
| 1777942803 | 22.78° C | 84% | 1019.4 hPa | 0 mm | - | 0 W/m² | - |
| 1777942500 | 22.78° C | 85% | 1019.2 hPa | 0 mm | - | 0 W/m² | - |
| 1777942198 | 22.78° C | 84% | 1018.8 hPa | 0 mm | - | 0 W/m² | - |
| 1777941894 | 22.78° C | 84% | 1018.8 hPa | 0 mm | - | 0 W/m² | - |
| 1777941591 | 22.78° C | 84% | 1018.7 hPa | 0 mm | - | 0 W/m² | - |
| 1777941288 | 23.33° C | 83% | 1018.6 hPa | 0 mm | - | 0 W/m² | - |
| 1777940984 | 23.33° C | 82% | 1018.4 hPa | 0 mm | - | 0 W/m² | - |
| 1777940681 | 23.33° C | 82% | 1018.5 hPa | 0 mm | - | 0 W/m² | - |
| 1777940379 | 23.33° C | 82% | 1018.7 hPa | 0 mm | - | 0 W/m² | - |
| 1777940077 | 23.33° C | 81% | 1018.7 hPa | 0 mm | - | 0 W/m² | - |
| 1777939773 | 23.33° C | 81% | 1018.7 hPa | 0 mm | - | 1 W/m² | - |
| 1777939472 | 23.89° C | 80% | 1018.6 hPa | 0 mm | - | 2 W/m² | - |
| 1777939168 | 23.89° C | 80% | 1018.5 hPa | 0 mm | - | 4 W/m² | - |
| 1777938865 | 23.89° C | 80% | 1018.3 hPa | 0 mm | - | 6 W/m² | - |
| 1777938561 | 23.89° C | 80% | 1018.3 hPa | 0 mm | - | 8 W/m² | - |
| 1777938259 | 23.89° C | 80% | 1018.1 hPa | 0 mm | - | 13 W/m² | - |
| 1777937955 | 23.89° C | 79% | 1017.9 hPa | 0 mm | - | 22 W/m² | - |
| 1777937651 | 23.89° C | 79% | 1018 hPa | 0 mm | - | 29 W/m² | - |
| 1777937348 | 23.89° C | 79% | 1017.9 hPa | 0 mm | - | 32 W/m² | - |
| 1777937045 | 23.89° C | 78% | 1017.8 hPa | 0 mm | - | 33 W/m² | - |
| 1777936742 | 24.44° C | 78% | 1017.9 hPa | 0 mm | - | 30 W/m² | - |
| 1777936438 | 24.44° C | 78% | 1017.9 hPa | 0 mm | - | 38 W/m² | - |
| 1777936135 | 24.44° C | 77% | 1018.1 hPa | 0 mm | - | 40 W/m² | - |
| 1777935832 | 25° C | 77% | 1017.8 hPa | 0 mm | - | 43 W/m² | - |
| 1777935531 | 25° C | 76% | 1018 hPa | 0 mm | - | 49 W/m² | - |
* Rain latest hour (hover to see other rain measurements)
** Current wind speed in m/s (hover to see current wind gust speed)